{"data":{"norad_id":69381,"intl_designator":"2026-123AE","name":"STARLINK-37427","alt_names":[],"object_type":"PAYLOAD","status":"ACTIVE","operator":null,"country":"US","launch_date":"2026-06-04","launch_site_code":"AFETR","launch_vehicle":null,"mission":null,"orbit_class":"UNKNOWN","rcs_meters":null,"size_class":null,"mass_kg":null,"dimensions":null,"purposes":["comms"],"wikipedia_slug":null,"has_3d_model":false,"image_url":null,"decayed_at":null,"tle_current":{"epoch":"2026-09-20T03:12:32.723712Z","epoch_age_seconds":60668,"freshness":"FRESH","line1":"1 69381U 26123AE  26263.13371208  .00017896  00000+0  53935-3 0  9993","line2":"2 69381  53.1578 143.4131 0001468  80.2102 279.9066 15.34410987 16814","mean_motion":15.34410987,"eccentricity":0.0001468,"inclination_deg":53.1578,"raan_deg":143.4131,"arg_perigee_deg":80.2102,"mean_anomaly_deg":279.9066,"bstar":0.00053935,"rev_number":1681,"period_min":93.847086093629,"perigee_km":461.66635416912,"apogee_km":463.67481527599,"semimajor_km":6840.8075847226,"source":"CELESTRAK","updated_at":"2026-09-20T09:00:44.193805Z"}}}